KMIAKEYW

Guest
Details From KMIA - Miami Intl
To KEYW - Key West Intl
Flight Number -
Tags generated
Created
Modified
Stats Distance 110 nm / 204 km
Max Altitude 1,100 ft / 335 m
Waypoints 3
Social Downloads 2
Likes 0
Share VATSIM

Download

Looking for another format? Having issues loading an existing format? Contact us
Advertisement - Login to hide

Notes

Basic altitude profile: - Ascent Rate: 2500ft/min - Ascent Speed: 250kts - Cruise Altitude: 27000ft - Cruise Speed: 420kts - Descent Rate: 1500ft/min - Descent Speed: 250kts Options: - Use NATs: yes - Use PACOTS: yes - Use low airways: yes - Use high airways: yes

Route

KMIA DHP KEYW

ID Type Via Altitude Latitude Longitude Leg Dist Tot Dist Heading (true) Name
O KMIA APT - 0 ft / 0 m 25.79617˚ -80.28974˚ - 0 nm - Miami Intl
DHP VOR - 1,100 ft / 335 m 25.79997˚ -80.34903˚ 3 nm 3 nm 274° / 274° DOLPHIN VORTAC
O KEYW APT - 0 ft / 0 m 24.55612˚ -81.75955˚ 107 nm 110 nm 226° / 225° Key West Intl

Altitude Profile

Advertisement - Login to hide

KMIA

Details ICAO KMIA (MIA)
Name Miami Intl
Region United States
Timezone America/New_York (UTC-5.0)
Stats Elevation 8 ft / 2 m (AMSL)
Location 25.796167° -80.289742°
Runways 4
Magnetic Variation 6.641° W

METAR

KMIA 152353Z 15004KT 10SM BKN250 22/15 A3012 RMK AO2 SLP199 T02170150 10261 20217 53019

Decode

TAF

TAF KMIA 152320Z 1600/1706 VRB04KT P6SM SCT250 FM161500 04007KT P6SM SCT040 FM161800 07010KT P6SM SCT040 SCT250

Decode

Departure Runways

ID Width Length Bearing (true) Bearing (mag) Surface Threshold Offset Overrun Length
08L 151 ft / 46 m 8,588 ft / 2,618 m 87.35° 93.99° Asphalt 0 ft / 0 m 1,001 ft / 305 m
08R 200 ft / 61 m 10,490 ft / 3,197 m 87.37° 94.01° Asphalt 0 ft / 0 m 1,001 ft / 305 m
09 151 ft / 46 m 12,981 ft / 3,957 m 87.36° 94.00° Asphalt 1,348 ft / 411 m 1,001 ft / 305 m
12 151 ft / 46 m 9,353 ft / 2,851 m 119.60° 126.24° Asphalt 0 ft / 0 m 1,001 ft / 305 m
26L 200 ft / 61 m 10,490 ft / 3,197 m 267.38° 274.02° Asphalt 0 ft / 0 m 1,001 ft / 305 m
26R 151 ft / 46 m 8,588 ft / 2,618 m 267.37° 274.01° Asphalt 0 ft / 0 m 1,001 ft / 305 m
27 151 ft / 46 m 12,981 ft / 3,957 m 267.38° 274.02° Asphalt 1,270 ft / 387 m 899 ft / 274 m
30 151 ft / 46 m 9,353 ft / 2,851 m 299.61° 306.25° Asphalt 938 ft / 286 m 427 ft / 130 m

KEYW

Details ICAO KEYW (EYW)
Name Key West Intl
Region United States
Timezone America/New_York (UTC-5.0)
Stats Elevation 2 ft / 1 m (AMSL)
Location 24.556124° -81.759546°
Runways 1
Magnetic Variation 5.545° W

METAR

KEYW 152353Z 01004KT 10SM CLR 20/16 A3012 RMK AO2 SLP198 T02000161 10256 20200 53013

Decode

TAF

KEYW 152334Z 1600/1624 03007KT P6SM SCT060 TEMPO 1600/1603 BKN060 FM161200 07011KT P6SM SCT050

Decode

Destination Runways

ID Width Length Bearing (true) Bearing (mag) Surface Threshold Offset Overrun Length
09 100 ft / 30 m 4,794 ft / 1,461 m 89.38° 94.93° Asphalt 151 ft / 46 m 0 ft / 0 m
27 100 ft / 30 m 4,794 ft / 1,461 m 269.39° 274.94° Asphalt 151 ft / 46 m 0 ft / 0 m

Popular Alternatives